GLO1239 SBPA-SBGR

Flight info

Callsign GLO1239
Flight time 1h 13m
Altitude 37000
Route ARTIL UZ104 SAVLU UZ121 BUXUK
Aircraft B738/M-SDE2E3FGHIRWXY/LB1

Departure

Time 2026-05-03 22:18
Airport Porto Alegre-Salgado Filho International Airport (SBPA)

Arrival

Time 2026-05-03 23:31
Airport São Paulo/Guarulhos–Governor André Franco Montoro International Airport (SBGR)
Time Latitude Longitude Altitude Speed Heading
2026-05-03 21:50 -29.99129 -51.17537 17 ft 0 kts
2026-05-03 22:08 -29.99141 -51.17537 16 ft 3 kts
2026-05-03 22:08 -29.99153 -51.17537 18 ft 1 kts 332°
2026-05-03 22:08 -29.99154 -51.17537 18 ft 0 kts 329°
2026-05-03 22:10 -29.99158 -51.17535 17 ft 1 kts 304°
2026-05-03 22:11 -29.99160 -51.17534 17 ft 0 kts 276°
2026-05-03 22:14 -29.99166 -51.17554 16 ft 7 kts 244°
2026-05-03 22:14 -29.99170 -51.17638 15 ft 14 kts 272°
2026-05-03 22:14 -29.99161 -51.17768 15 ft 18 kts 276°
2026-05-03 22:14 -29.99140 -51.17911 16 ft 18 kts 287°
2026-05-03 22:15 -29.99127 -51.18029 15 ft 11 kts 223°
2026-05-03 22:15 -29.99195 -51.18072 15 ft 11 kts 206°
2026-05-03 22:15 -29.99239 -51.18140 15 ft 11 kts 238°
2026-05-03 22:15 -29.99295 -51.18194 17 ft 11 kts 206°
2026-05-03 22:16 -29.99377 -51.18243 16 ft 10 kts 207°
2026-05-03 22:16 -29.99407 -51.18261 16 ft 0 kts 208°
2026-05-03 22:16 -29.99411 -51.18264 16 ft 2 kts 209°
2026-05-03 22:16 -29.99435 -51.18269 16 ft 4 kts 140°
2026-05-03 22:17 -29.99442 -51.18120 17 ft 47 kts 91°
2026-05-03 22:17 -29.99453 -51.17478 15 ft 111 kts 91°
2026-05-03 22:17 -29.99480 -51.16394 86 ft 152 kts 91°
2026-05-03 22:17 -29.99478 -51.15159 578 ft 159 kts 89°
2026-05-03 22:18 -29.99443 -51.13886 1283 ft 153 kts 89°
2026-05-03 22:18 -29.99476 -51.12603 1706 ft 173 kts 90°
2026-05-03 22:18 -29.99524 -51.11111 1964 ft 198 kts 90°
2026-05-03 22:18 -29.99571 -51.09436 2171 ft 219 kts 89°
2026-05-03 22:19 -29.99613 -51.07637 2592 ft 231 kts 89°
2026-05-03 22:19 -29.99634 -51.05692 2939 ft 250 kts 83°
2026-05-03 22:19 -29.99014 -51.03843 3552 ft 252 kts 48°
2026-05-03 22:19 -29.97588 -51.02664 4186 ft 258 kts 20°
2026-05-03 22:20 -29.95794 -51.02400 4797 ft 267 kts 353°
2026-05-03 22:20 -29.93927 -51.02527 5403 ft 272 kts 13°
2026-05-03 22:20 -29.92222 -51.01627 6204 ft 271 kts 26°
2026-05-03 22:20 -29.90393 -51.01126 6834 ft 275 kts 358°
2026-05-03 22:21 -29.88488 -51.01189 7657 ft 279 kts 356°
2026-05-03 22:21 -29.86532 -51.01232 8536 ft 283 kts 356°
2026-05-03 22:21 -29.84544 -51.01229 9406 ft 289 kts 356°
2026-05-03 22:21 -29.82513 -51.01183 10243 ft 295 kts 356°
2026-05-03 22:22 -29.80394 -51.01108 10585 ft 318 kts 357°
2026-05-03 22:22 -29.78098 -51.00998 10870 ft 340 kts 358°
2026-05-03 22:22 -29.75700 -51.00855 11526 ft 348 kts 359°
2026-05-03 22:22 -29.73270 -51.00692 12328 ft 352 kts 359°
2026-05-03 22:23 -29.70815 -51.00517 13129 ft 355 kts 359°
2026-05-03 22:23 -29.68336 -51.00337 13897 ft 359 kts 359°
2026-05-03 22:23 -29.65835 -51.00153 14616 ft 362 kts 359°
2026-05-03 22:23 -29.63308 -50.99966 15304 ft 365 kts 359°
2026-05-03 22:24 -29.60753 -50.99776 15972 ft 370 kts 359°
2026-05-03 22:24 -29.58175 -50.99585 16657 ft 373 kts 359°
2026-05-03 22:24 -29.55569 -50.99392 17339 ft 377 kts 359°
2026-05-03 22:24 -29.52932 -50.99196 17998 ft 381 kts 359°
2026-05-03 22:25 -29.50272 -50.98999 18627 ft 385 kts 359°
2026-05-03 22:25 -29.47582 -50.98799 19199 ft 389 kts 359°
2026-05-03 22:25 -29.44863 -50.98598 19745 ft 394 kts 359°
2026-05-03 22:25 -29.42117 -50.98394 20337 ft 397 kts 359°
2026-05-03 22:26 -29.39388 -50.98191 20911 ft 400 kts 359°
2026-05-03 22:26 -29.36591 -50.97984 21456 ft 404 kts 359°
2026-05-03 22:26 -29.33765 -50.97775 21993 ft 409 kts 359°
2026-05-03 22:26 -29.30911 -50.97565 22528 ft 413 kts 359°
2026-05-03 22:27 -29.28033 -50.97352 23036 ft 417 kts 359°
2026-05-03 22:27 -29.25126 -50.97137 23560 ft 420 kts 359°
2026-05-03 22:27 -29.22199 -50.96920 24028 ft 423 kts 359°
2026-05-03 22:27 -29.19247 -50.96702 24479 ft 426 kts 359°
2026-05-03 22:28 -29.16286 -50.96483 24923 ft 428 kts 359°
2026-05-03 22:28 -29.13303 -50.96262 25351 ft 431 kts 359°
2026-05-03 22:28 -29.10300 -50.96041 25781 ft 434 kts 359°
2026-05-03 22:28 -29.07274 -50.95818 26183 ft 437 kts 359°
2026-05-03 22:29 -29.04232 -50.95594 26577 ft 440 kts 359°
2026-05-03 22:29 -29.01167 -50.95367 26981 ft 442 kts 359°
2026-05-03 22:29 -28.98085 -50.95139 27361 ft 445 kts 358°
2026-05-03 22:29 -28.95023 -50.94913 27700 ft 449 kts 358°
2026-05-03 22:30 -28.91896 -50.94680 28056 ft 452 kts 358°
2026-05-03 22:30 -28.88750 -50.94448 28420 ft 455 kts 358°
2026-05-03 22:30 -28.85584 -50.94216 28777 ft 457 kts 359°
2026-05-03 22:30 -28.82407 -50.93686 29108 ft 467 kts
2026-05-03 22:31 -28.79284 -50.92550 29463 ft 476 kts 18°
2026-05-03 22:31 -28.76292 -50.90855 29820 ft 482 kts 24°
2026-05-03 22:31 -28.73339 -50.88990 30140 ft 486 kts 25°
2026-05-03 22:31 -28.70380 -50.87069 30348 ft 492 kts 25°
2026-05-03 22:32 -28.67405 -50.85128 30599 ft 494 kts 25°
2026-05-03 22:32 -28.64415 -50.83191 30911 ft 495 kts 24°
2026-05-03 22:32 -28.61416 -50.81266 31191 ft 496 kts 24°
2026-05-03 22:32 -28.58398 -50.79344 31435 ft 498 kts 24°
2026-05-03 22:33 -28.55354 -50.77414 31665 ft 501 kts 24°
2026-05-03 22:33 -28.52309 -50.75490 31963 ft 501 kts 24°
2026-05-03 22:33 -28.49305 -50.73593 32328 ft 499 kts 24°
2026-05-03 22:33 -28.46273 -50.71679 32706 ft 498 kts 23°
2026-05-03 22:34 -28.43244 -50.69770 32998 ft 498 kts 23°
2026-05-03 22:34 -28.40207 -50.67857 33246 ft 500 kts 23°
2026-05-03 22:34 -28.37161 -50.65940 33544 ft 500 kts 23°
2026-05-03 22:34 -28.34120 -50.64024 33901 ft 499 kts 23°
2026-05-03 22:35 -28.31090 -50.62117 34242 ft 498 kts 22°
2026-05-03 22:35 -28.28061 -50.60212 34500 ft 498 kts 22°
2026-05-03 22:35 -28.25024 -50.58305 34753 ft 498 kts 22°
2026-05-03 22:35 -28.21996 -50.56403 35031 ft 497 kts 22°
2026-05-03 22:36 -28.18972 -50.54504 35321 ft 496 kts 22°
2026-05-03 22:36 -28.15950 -50.52608 35596 ft 496 kts 22°
2026-05-03 22:36 -28.12930 -50.50715 35788 ft 496 kts 22°
2026-05-03 22:36 -28.09907 -50.48823 35977 ft 498 kts 22°
2026-05-03 22:37 -28.06876 -50.46927 36229 ft 497 kts 22°
2026-05-03 22:37 -28.03852 -50.45034 36511 ft 496 kts 21°
2026-05-03 22:37 -28.00834 -50.43146 36762 ft 495 kts 21°
2026-05-03 22:37 -27.97821 -50.41263 37006 ft 495 kts 21°
2026-05-03 22:38 -27.94807 -50.39381 37268 ft 494 kts 21°
2026-05-03 22:38 -27.91803 -50.37506 37516 ft 493 kts 21°
2026-05-03 22:38 -27.88843 -50.35660 37732 ft 493 kts 21°
2026-05-03 22:38 -27.85835 -50.33786 37902 ft 493 kts 21°
2026-05-03 22:39 -27.82833 -50.31916 38133 ft 493 kts 21°
2026-05-03 22:39 -27.79833 -50.30048 38370 ft 492 kts 21°
2026-05-03 22:39 -27.76835 -50.28182 38583 ft 492 kts 21°
2026-05-03 22:39 -27.73840 -50.26320 38782 ft 491 kts 21°
2026-05-03 22:40 -27.70846 -50.24459 38976 ft 491 kts 21°
2026-05-03 22:40 -27.67852 -50.22599 39138 ft 491 kts 21°
2026-05-03 22:40 -27.64861 -50.20742 39216 ft 492 kts 21°
2026-05-03 22:41 -27.58843 -50.17010 39215 ft 493 kts 21°
2026-05-03 22:41 -27.52854 -50.13290 39220 ft 489 kts 20°
2026-05-03 22:42 -27.46903 -50.09607 39222 ft 487 kts 20°
2026-05-03 22:42 -27.40980 -50.05915 39223 ft 486 kts 21°
2026-05-03 22:43 -27.35074 -50.02218 39219 ft 485 kts 21°
2026-05-03 22:43 -27.29174 -49.98527 39229 ft 486 kts 21°
2026-05-03 22:44 -27.23298 -49.94861 39222 ft 487 kts 20°
2026-05-03 22:44 -27.17352 -49.91185 39222 ft 489 kts 20°
2026-05-03 22:45 -27.11377 -49.87515 39231 ft 490 kts 20°
2026-05-03 22:45 -27.05379 -49.83820 39232 ft 492 kts 20°
2026-05-03 22:46 -26.99361 -49.80114 39229 ft 494 kts 20°
2026-05-03 22:46 -26.93329 -49.76405 39224 ft 496 kts 20°
2026-05-03 22:47 -26.87278 -49.72687 39220 ft 496 kts 20°
2026-05-03 22:47 -26.81223 -49.68976 39224 ft 496 kts 20°
2026-05-03 22:48 -26.75171 -49.65270 39234 ft 495 kts 20°
2026-05-03 22:48 -26.69135 -49.61567 39240 ft 495 kts 20°
2026-05-03 22:49 -26.63099 -49.57869 39235 ft 494 kts 20°
2026-05-03 22:49 -26.57071 -49.54190 39250 ft 493 kts 19°
2026-05-03 22:50 -26.51042 -49.50509 39246 ft 494 kts 19°
2026-05-03 22:50 -26.45036 -49.46848 39251 ft 494 kts 19°
2026-05-03 22:51 -26.38998 -49.43173 39215 ft 495 kts 19°
2026-05-03 22:51 -26.32956 -49.39498 39244 ft 495 kts 19°
2026-05-03 22:52 -26.26910 -49.35824 39249 ft 495 kts 19°
2026-05-03 22:52 -26.20856 -49.32148 39255 ft 496 kts 19°
2026-05-03 22:53 -26.14786 -49.28462 39247 ft 497 kts 19°
2026-05-03 22:53 -26.08721 -49.24731 39216 ft 500 kts 21°
2026-05-03 22:54 -26.02742 -49.20726 39242 ft 502 kts 22°
2026-05-03 22:54 -25.96780 -49.16677 39254 ft 502 kts 22°
2026-05-03 22:55 -25.90835 -49.12691 39250 ft 502 kts 21°
2026-05-03 22:55 -25.84844 -49.08700 39251 ft 502 kts 21°
2026-05-03 22:56 -25.78851 -49.04706 39225 ft 502 kts 21°
2026-05-03 22:56 -25.72871 -49.00734 39234 ft 500 kts 21°
2026-05-03 22:57 -25.66902 -48.96761 39254 ft 500 kts 21°
2026-05-03 22:57 -25.60941 -48.92792 39264 ft 500 kts 21°
2026-05-03 22:58 -25.54985 -48.88825 39262 ft 500 kts 21°
2026-05-03 22:58 -25.50027 -48.85524 39254 ft 500 kts 21°
2026-05-03 22:59 -25.44046 -48.81637 39247 ft 496 kts 19°
2026-05-03 22:59 -25.37983 -48.78019 39248 ft 495 kts 19°
2026-05-03 23:00 -25.31919 -48.74381 39247 ft 496 kts 19°
2026-05-03 23:00 -25.25865 -48.70698 39241 ft 497 kts 19°
2026-05-03 23:01 -25.19802 -48.67040 39234 ft 497 kts 19°
2026-05-03 23:01 -25.13730 -48.63402 39239 ft 496 kts 19°
2026-05-03 23:02 -25.07666 -48.59766 39251 ft 495 kts 19°
2026-05-03 23:02 -25.01619 -48.56123 39245 ft 495 kts 19°
2026-05-03 23:03 -24.95564 -48.52486 39243 ft 496 kts 19°
2026-05-03 23:03 -24.89508 -48.48838 39196 ft 495 kts 19°
2026-05-03 23:04 -24.83507 -48.45216 39226 ft 495 kts 19°
2026-05-03 23:04 -24.77455 -48.41599 39230 ft 496 kts 19°
2026-05-03 23:05 -24.71398 -48.37927 39228 ft 498 kts 19°
2026-05-03 23:05 -24.65327 -48.34253 39226 ft 498 kts 19°
2026-05-03 23:06 -24.59248 -48.30588 39213 ft 498 kts 19°
2026-05-03 23:06 -24.53170 -48.26935 39228 ft 497 kts 18°
2026-05-03 23:07 -24.47102 -48.23294 39227 ft 497 kts 18°
2026-05-03 23:07 -24.41030 -48.19645 39217 ft 497 kts 18°
2026-05-03 23:08 -24.34965 -48.16010 39224 ft 497 kts 18°
2026-05-03 23:08 -24.28911 -48.12437 39010 ft 501 kts 18°
2026-05-03 23:08 -24.25817 -48.10629 38426 ft 504 kts 18°
2026-05-03 23:09 -24.22736 -48.08821 37889 ft 501 kts 18°
2026-05-03 23:09 -24.19692 -48.07026 37602 ft 492 kts 18°
2026-05-03 23:09 -24.16706 -48.05259 37315 ft 483 kts 18°
2026-05-03 23:09 -24.13753 -48.03521 37051 ft 482 kts 18°
2026-05-03 23:10 -24.10760 -48.01770 36489 ft 495 kts 18°
2026-05-03 23:10 -24.07714 -47.99991 35847 ft 497 kts 18°
2026-05-03 23:10 -24.04664 -47.98191 35132 ft 499 kts 19°
2026-05-03 23:10 -24.01595 -47.96386 34324 ft 503 kts 19°
2026-05-03 23:11 -23.98507 -47.94574 33558 ft 504 kts 19°
2026-05-03 23:11 -23.95432 -47.92766 32987 ft 500 kts 19°
2026-05-03 23:11 -23.92375 -47.90968 32455 ft 496 kts 19°
2026-05-03 23:11 -23.89352 -47.89191 31909 ft 492 kts 19°
2026-05-03 23:12 -23.86355 -47.87433 31392 ft 487 kts 19°
2026-05-03 23:12 -23.83379 -47.85689 30868 ft 484 kts 19°
2026-05-03 23:12 -23.80425 -47.83960 30354 ft 480 kts 19°
2026-05-03 23:12 -23.77493 -47.82244 29767 ft 477 kts 20°
2026-05-03 23:13 -23.74758 -47.80151 29185 ft 488 kts 36°
2026-05-03 23:13 -23.72354 -47.77551 28730 ft 484 kts 38°
2026-05-03 23:13 -23.70001 -47.74934 28190 ft 480 kts 39°
2026-05-03 23:13 -23.67652 -47.72384 27706 ft 474 kts 38°
2026-05-03 23:14 -23.65326 -47.69923 27236 ft 469 kts 37°
2026-05-03 23:14 -23.62989 -47.67477 26873 ft 462 kts 38°
2026-05-03 23:14 -23.60687 -47.65069 26541 ft 455 kts 38°
2026-05-03 23:14 -23.58415 -47.62690 26210 ft 450 kts 38°
2026-05-03 23:15 -23.56168 -47.60335 25882 ft 445 kts 38°
2026-05-03 23:15 -23.53945 -47.58004 25561 ft 443 kts 38°
2026-05-03 23:15 -23.51717 -47.55669 25241 ft 446 kts 38°
2026-05-03 23:15 -23.49469 -47.53312 24891 ft 450 kts 39°
2026-05-03 23:16 -23.47221 -47.50953 24558 ft 447 kts 39°
2026-05-03 23:16 -23.44992 -47.48611 24215 ft 445 kts 39°
2026-05-03 23:16 -23.42770 -47.46278 23890 ft 442 kts 39°
2026-05-03 23:16 -23.40560 -47.43962 23509 ft 440 kts 39°
2026-05-03 23:17 -23.38359 -47.41660 23174 ft 437 kts 39°
2026-05-03 23:17 -23.36182 -47.39384 22882 ft 432 kts 39°
2026-05-03 23:17 -23.34027 -47.37135 22586 ft 427 kts 39°
2026-05-03 23:17 -23.31895 -47.34910 22333 ft 422 kts 39°
2026-05-03 23:18 -23.29785 -47.32709 22078 ft 419 kts 39°
2026-05-03 23:18 -23.27693 -47.30525 21823 ft 416 kts 39°
2026-05-03 23:18 -23.25614 -47.28355 21564 ft 413 kts 39°
2026-05-03 23:18 -23.23543 -47.26192 21312 ft 412 kts 40°
2026-05-03 23:19 -23.21480 -47.24038 21059 ft 409 kts 40°
2026-05-03 23:19 -23.19434 -47.21901 20671 ft 407 kts 40°
2026-05-03 23:19 -23.17439 -47.19819 20152 ft 401 kts 41°
2026-05-03 23:19 -23.15748 -47.17404 19450 ft 406 kts 63°
2026-05-03 23:20 -23.14898 -47.14494 18909 ft 403 kts 82°
2026-05-03 23:20 -23.14876 -47.11500 18434 ft 394 kts 97°
2026-05-03 23:20 -23.15169 -47.08561 17851 ft 388 kts 98°
2026-05-03 23:20 -23.15501 -47.05665 17239 ft 385 kts 98°
2026-05-03 23:21 -23.15836 -47.02792 16679 ft 380 kts 98°
2026-05-03 23:21 -23.16159 -46.99955 16143 ft 376 kts 98°
2026-05-03 23:21 -23.16468 -46.97156 15612 ft 371 kts 97°
2026-05-03 23:21 -23.16765 -46.94388 15094 ft 366 kts 97°
2026-05-03 23:22 -23.17336 -46.88956 14065 ft 356 kts 96°
2026-05-03 23:22 -23.17613 -46.86295 13398 ft 353 kts 96°
2026-05-03 23:22 -23.17937 -46.83683 12927 ft 343 kts 104°
2026-05-03 23:23 -23.19014 -46.81457 12572 ft 327 kts 135°
2026-05-03 23:23 -23.20740 -46.79969 12283 ft 311 kts 152°
2026-05-03 23:23 -23.22655 -46.78990 11984 ft 298 kts 159°
2026-05-03 23:23 -23.24562 -46.78174 11625 ft 292 kts 161°
2026-05-03 23:24 -23.26458 -46.77390 11176 ft 290 kts 160°
2026-05-03 23:24 -23.28338 -46.76610 10719 ft 289 kts 160°
2026-05-03 23:24 -23.30184 -46.75835 10273 ft 287 kts 160°
2026-05-03 23:24 -23.32036 -46.75052 9807 ft 284 kts 160°
2026-05-03 23:25 -23.33878 -46.74269 9297 ft 284 kts 159°
2026-05-03 23:25 -23.35714 -46.73484 8839 ft 282 kts 159°
2026-05-03 23:25 -23.37524 -46.72707 8467 ft 277 kts 158°
2026-05-03 23:25 -23.39305 -46.71942 8081 ft 273 kts 157°
2026-05-03 23:26 -23.41033 -46.71198 7909 ft 261 kts 157°
2026-05-03 23:26 -23.42638 -46.70344 7569 ft 253 kts 138°
2026-05-03 23:26 -23.43715 -46.68891 7345 ft 242 kts 121°
2026-05-03 23:26 -23.44625 -46.67419 7194 ft 229 kts 121°
2026-05-03 23:27 -23.45503 -46.66009 6866 ft 222 kts 122°
2026-05-03 23:27 -23.46358 -46.64637 6500 ft 217 kts 121°
2026-05-03 23:27 -23.47161 -46.63274 6129 ft 210 kts 113°
2026-05-03 23:27 -23.47295 -46.61754 5753 ft 202 kts 77°
2026-05-03 23:28 -23.46991 -46.60301 5413 ft 191 kts 82°
2026-05-03 23:28 -23.46669 -46.58944 5039 ft 181 kts 75°
2026-05-03 23:28 -23.46293 -46.57674 4641 ft 172 kts 76°
2026-05-03 23:28 -23.45960 -46.56451 4269 ft 164 kts 76°
2026-05-03 23:29 -23.45653 -46.55313 4030 ft 150 kts 77°
2026-05-03 23:29 -23.45367 -46.54250 3690 ft 144 kts 75°
2026-05-03 23:29 -23.45084 -46.53206 3397 ft 140 kts 75°
2026-05-03 23:29 -23.44807 -46.52175 3173 ft 144 kts 74°
2026-05-03 23:30 -23.44529 -46.51128 2974 ft 146 kts 75°
2026-05-03 23:30 -23.44243 -46.50077 2767 ft 142 kts 75°
2026-05-03 23:30 -23.43974 -46.49057 2562 ft 137 kts 74°
2026-05-03 23:30 -23.43712 -46.48093 2471 ft 116 kts 73°
2026-05-03 23:31 -23.43549 -46.47473 2468 ft 55 kts 74°
2026-05-03 23:31 -23.43455 -46.47131 2471 ft 37 kts 74°
2026-05-03 23:31 -23.43374 -46.46944 2468 ft 24 kts 50°
2026-05-03 23:31 -23.43268 -46.46827 2471 ft 21 kts 44°
2026-05-03 23:32 -23.43163 -46.46724 2469 ft 20 kts 32°
2026-05-03 23:32 -23.43035 -46.46738 2471 ft 19 kts 355°
2026-05-03 23:32 -23.42905 -46.46775 2469 ft 19 kts 342°
2026-05-03 23:32 -23.42784 -46.46822 2471 ft 18 kts 315°
2026-05-03 23:33 -23.42793 -46.46946 2467 ft 17 kts 256°
2026-05-03 23:33 -23.42826 -46.47059 2470 ft 16 kts 253°
2026-05-03 23:33 -23.42851 -46.47164 2470 ft 13 kts 258°
2026-05-03 23:33 -23.42877 -46.47257 2467 ft 13 kts 254°
2026-05-03 23:34 -23.42902 -46.47347 2468 ft 11 kts 254°
2026-05-03 23:34 -23.42931 -46.47453 2470 ft 20 kts 254°
2026-05-03 23:34 -23.42977 -46.47623 2468 ft 27 kts 253°
2026-05-03 23:34 -23.43031 -46.47823 2469 ft 27 kts 253°
2026-05-03 23:35 -23.43084 -46.48012 2471 ft 25 kts 253°
2026-05-03 23:35 -23.43046 -46.48129 2469 ft 18 kts 351°
2026-05-03 23:35 -23.42923 -46.48154 2467 ft 18 kts 336°
2026-05-03 23:35 -23.42870 -46.48203 2469 ft 9 kts 292°
2026-05-03 23:36 -23.42859 -46.48233 2467 ft 0 kts 291°